TimeCST,TemperatureF,Dew PointF,Humidity,Sea Level PressureIn,VisibilityMPH,Wind Direction,Wind SpeedMPH,Gust SpeedMPH,PrecipitationIn,Events,Conditions,WindDirDegrees,DateUTC
12:15 AM,47.1,29.3,50,30.27,10.0,Calm,Calm,-,N/A,,Clear,0,2013-12-18 06:15:00
12:35 AM,43.5,29.3,57,30.26,10.0,Calm,Calm,-,N/A,,Clear,0,2013-12-18 06:35:00
12:55 AM,43.0,29.5,59,30.25,10.0,Calm,Calm,-,N/A,,Clear,0,2013-12-18 06:55:00
1:15 AM,42.6,29.3,59,30.24,10.0,Calm,Calm,-,N/A,,Clear,0,2013-12-18 07:15:00
1:35 AM,42.6,29.3,59,30.23,10.0,Calm,Calm,-,N/A,,Clear,0,2013-12-18 07:35:00
1:55 AM,43.5,29.3,57,30.23,10.0,Calm,Calm,-,N/A,,Clear,0,2013-12-18 07:55:00
2:15 AM,44.1,29.3,56,30.22,10.0,Calm,Calm,-,N/A,,Clear,0,2013-12-18 08:15:00
2:35 AM,43.2,29.1,58,30.22,10.0,Calm,Calm,-,N/A,,Clear,0,2013-12-18 08:35:00
2:55 AM,41.7,29.3,61,30.22,10.0,Calm,Calm,-,N/A,,Clear,0,2013-12-18 08:55:00
3:15 AM,41.5,29.3,62,30.22,10.0,Calm,Calm,-,N/A,,Clear,0,2013-12-18 09:15:00
3:35 AM,41.4,29.3,62,30.21,10.0,Calm,Calm,-,N/A,,Clear,0,2013-12-18 09:35:00
3:55 AM,41.9,29.1,61,30.21,10.0,Calm,Calm,-,N/A,,Clear,0,2013-12-18 09:55:00
4:15 AM,41.7,28.9,61,30.20,10.0,Calm,Calm,-,N/A,,Clear,0,2013-12-18 10:15:00
4:35 AM,41.2,28.8,61,30.20,10.0,Calm,Calm,-,N/A,,Clear,0,2013-12-18 10:35:00
4:55 AM,41.9,28.9,60,30.19,10.0,Calm,Calm,-,N/A,,Clear,0,2013-12-18 10:55:00
5:15 AM,40.8,28.9,63,30.19,10.0,Calm,Calm,-,N/A,,Clear,0,2013-12-18 11:15:00
5:35 AM,41.2,28.8,61,30.18,10.0,Calm,Calm,-,N/A,,Clear,0,2013-12-18 11:35:00
5:55 AM,39.6,28.4,64,30.18,10.0,Calm,Calm,-,N/A,,Clear,0,2013-12-18 11:55:00
6:15 AM,41.0,28.6,61,30.17,10.0,Calm,Calm,-,N/A,,Clear,0,2013-12-18 12:15:00
6:35 AM,41.4,28.4,60,30.17,10.0,SSE,6.9,-,N/A,,Clear,160,2013-12-18 12:35:00
6:55 AM,42.4,28.4,58,30.17,10.0,Calm,Calm,-,N/A,,Clear,0,2013-12-18 12:55:00
7:15 AM,42.1,28.2,58,30.16,10.0,Calm,Calm,-,N/A,,Clear,0,2013-12-18 13:15:00
7:35 AM,43.9,28.2,54,30.16,10.0,SSE,9.2,-,N/A,,Clear,160,2013-12-18 13:35:00
7:55 AM,43.9,28.4,55,30.16,10.0,South,8.1,-,N/A,,Clear,170,2013-12-18 13:55:00
8:15 AM,44.6,28.8,54,30.16,10.0,Calm,Calm,-,N/A,,Clear,0,2013-12-18 14:15:00
8:35 AM,46.4,29.7,52,30.16,10.0,SSE,9.2,-,N/A,,Clear,160,2013-12-18 14:35:00
8:55 AM,48.6,30.2,49,30.16,10.0,South,9.2,-,N/A,,Clear,170,2013-12-18 14:55:00
9:15 AM,49.8,31.1,49,30.15,10.0,SSE,10.4,-,N/A,,Clear,160,2013-12-18 15:15:00
9:35 AM,51.3,32.0,48,30.14,10.0,South,8.1,-,N/A,,Clear,170,2013-12-18 15:35:00
9:55 AM,53.6,32.5,45,30.14,10.0,South,6.9,-,N/A,,Clear,170,2013-12-18 15:55:00
10:15 AM,55.6,33.3,43,30.14,10.0,South,8.1,-,N/A,,Clear,170,2013-12-18 16:15:00
10:35 AM,58.1,34.0,40,30.14,10.0,South,5.8,-,N/A,,Clear,180,2013-12-18 16:35:00
10:55 AM,60.1,33.6,37,30.14,10.0,South,9.2,-,N/A,,Clear,180,2013-12-18 16:55:00
11:15 AM,60.3,33.3,36,30.12,10.0,SSW,9.2,17.3,N/A,,Clear,200,2013-12-18 17:15:00
11:35 AM,61.3,33.4,35,30.11,10.0,South,10.4,-,N/A,,Clear,180,2013-12-18 17:35:00
11:55 AM,63.0,33.4,33,30.09,10.0,South,9.2,16.1,N/A,,Clear,180,2013-12-18 17:55:00
12:15 PM,64.8,33.3,31,30.08,10.0,South,10.4,17.3,N/A,,Clear,180,2013-12-18 18:15:00
12:35 PM,66.6,32.9,29,30.06,10.0,SSW,9.2,18.4,N/A,,Clear,210,2013-12-18 18:35:00
12:55 PM,68.0,32.5,27,30.04,10.0,South,13.8,19.6,N/A,,Clear,190,2013-12-18 18:55:00
1:15 PM,68.5,32.2,26,30.03,10.0,SSW,15.0,24.2,N/A,,Clear,200,2013-12-18 19:15:00
1:35 PM,69.1,32.5,26,30.01,10.0,South,11.5,18.4,N/A,,Clear,190,2013-12-18 19:35:00
1:55 PM,70.0,32.0,25,29.99,10.0,SSW,10.4,19.6,N/A,,Clear,200,2013-12-18 19:55:00
2:15 PM,69.3,32.0,25,29.98,10.0,SSW,6.9,20.7,N/A,,Clear,200,2013-12-18 20:15:00
2:35 PM,69.8,32.4,25,29.97,10.0,SSW,11.5,19.6,N/A,,Clear,200,2013-12-18 20:35:00
2:55 PM,69.8,32.5,25,29.96,10.0,South,11.5,20.7,N/A,,Clear,180,2013-12-18 20:55:00
3:15 PM,70.5,32.9,25,29.95,10.0,South,12.7,20.7,N/A,,Clear,180,2013-12-18 21:15:00
3:35 PM,70.7,33.4,25,29.94,10.0,South,12.7,23.0,N/A,,Clear,190,2013-12-18 21:35:00
3:55 PM,70.7,34.0,26,29.94,10.0,South,12.7,19.6,N/A,,Clear,180,2013-12-18 21:55:00
4:15 PM,70.5,34.9,27,29.93,10.0,SSW,11.5,17.3,N/A,,Clear,200,2013-12-18 22:15:00
4:35 PM,70.7,32.0,24,29.93,10.0,SSW,10.4,24.2,N/A,,Clear,200,2013-12-18 22:35:00
4:55 PM,69.1,32.4,26,29.93,10.0,SSW,6.9,18.4,N/A,,Clear,210,2013-12-18 22:55:00
5:15 PM,67.5,32.9,28,29.92,10.0,SSW,6.9,-,N/A,,Clear,200,2013-12-18 23:15:00
5:35 PM,66.2,33.1,29,29.91,10.0,Calm,Calm,-,N/A,,Clear,0,2013-12-18 23:35:00
5:55 PM,65.5,33.8,31,29.91,10.0,South,4.6,-,N/A,,Clear,170,2013-12-18 23:55:00
6:15 PM,63.5,34.2,33,29.91,10.0,Calm,Calm,-,N/A,,Clear,0,2013-12-19 00:15:00
6:35 PM,63.5,34.7,34,29.91,10.0,South,12.7,20.7,N/A,,Clear,170,2013-12-19 00:35:00
6:55 PM,63.1,33.3,33,29.91,10.0,South,11.5,20.7,N/A,,Clear,180,2013-12-19 00:55:00
7:15 PM,63.5,32.2,31,29.91,10.0,South,11.5,19.6,N/A,,Clear,180,2013-12-19 01:15:00
7:35 PM,62.6,32.4,32,29.92,10.0,South,9.2,20.7,N/A,,Clear,180,2013-12-19 01:35:00
7:55 PM,62.2,32.5,33,29.91,10.0,South,11.5,18.4,N/A,,Clear,180,2013-12-19 01:55:00
8:15 PM,61.2,32.4,34,29.91,10.0,SSE,10.4,16.1,N/A,,Clear,160,2013-12-19 02:15:00
8:35 PM,60.1,32.5,35,29.91,10.0,South,12.7,18.4,N/A,,Clear,170,2013-12-19 02:35:00
8:55 PM,60.1,34.2,38,29.91,10.0,South,11.5,17.3,N/A,,Clear,170,2013-12-19 02:55:00
9:15 PM,59.9,35.1,39,29.91,10.0,South,8.1,17.3,N/A,,Clear,170,2013-12-19 03:15:00
9:35 PM,59.2,36.1,42,29.90,10.0,South,10.4,19.6,N/A,,Clear,180,2013-12-19 03:35:00
9:55 PM,59.4,37.6,44,29.91,10.0,South,6.9,16.1,N/A,,Clear,190,2013-12-19 03:55:00
10:15 PM,59.0,39.2,48,29.91,10.0,South,11.5,16.1,N/A,,Clear,180,2013-12-19 04:15:00
10:35 PM,59.4,40.8,50,29.91,10.0,South,12.7,16.1,N/A,,Clear,180,2013-12-19 04:35:00
10:55 PM,59.4,42.1,53,29.91,10.0,SSW,11.5,18.4,N/A,,Clear,200,2013-12-19 04:55:00
11:15 PM,59.2,42.8,55,29.90,10.0,South,12.7,18.4,N/A,,Clear,180,2013-12-19 05:15:00
11:35 PM,59.2,43.5,56,29.89,10.0,South,12.7,25.3,N/A,,Clear,190,2013-12-19 05:35:00
11:55 PM,59.2,43.7,57,29.89,10.0,South,8.1,21.9,N/A,,Clear,190,2013-12-19 05:55:00